User: anonymous   Login
Location: Laura�t
(43.9341°N, 0.2497°E)
Time: 03:07:06
(UTC+00:00)
Language:

Cosmos 2333 Rocket - Orbit

View from above orbital plane
View from above orbital plane
View from above satellite
View from above satellite

Ground track
Ground track

The orbit data is extracted from the following two-line orbital elements,

1 24298U 96051B   21125.80778303 -.00000187  00000-0 -74936-4 0  9994
2 24298  70.8294 310.8899 0018272 237.2043 122.7318 14.12449750272132
Epoch (UTC): 05 May 2021 19:23:12
Eccentricity: 0.0018272
inclination: 70.8294°
perigee height: 838 km
apogee height: 864 km
right ascension of ascending node: 310.8899°
argument of perigee: 237.2043°
revolutions per day: 14.12449750
mean anomaly at epoch: 122.7318°
orbit number at epoch: 27213

The dashed part of the orbit path shows where the satellite is in the earth's shadow,  

DLR